Location: �quirre
(50.4736°N, 2.2351°E)
Time: 07:17:05
(UTC+00:00)

Cosmos 1626 - Pass Details

Date: 07 August 2020
Orbit: 491 x 495 km, 82.5° (Epoch: 27 September)

Event Time Altitude Azimuth Distance (km) Brightness Sun altitude
Rises 02:30:51 0° 345° (NNW) 2,595 6.3 -15.1°
Reaches altitude 10° 02:33:01 10° 339° (NNW) 1,707 5.2 -14.9°
Maximum altitude 02:36:37 46° 265° (W) 673 2.4 -14.6°
Enters shadow 02:38:18 26° 207° (SSW) 999 3.1 -14.4°
